User: anonymous   Login
Location: Unspecified
(0.0000°N, 0.0000°E)
Time: 08:03:42
(UTC+00:00)
Language:

Tiangong 1 - Orbit

View from above orbital plane
View from above orbital plane
View from above satellite
View from above satellite

Ground track
Ground track

The orbit data is extracted from the following two-line orbital elements,

1 37820U 11053A   17114.65193918 +.00043413 +00000-0 +26623-3 0  9993
2 37820 042.7602 167.2536 0017184 055.2428 083.7924 15.76318301319517
Epoch (UTC): 24 April 2017 15:38:47
Eccentricity: 0.0017184
inclination: 42.7602°
perigee height: 329 km
apogee height: 352 km
right ascension of ascending node: 167.2536°
argument of perigee: 55.2428°
revolutions per day: 15.76318301
mean anomaly at epoch: 83.7924°
orbit number at epoch: 31951

The dashed part of the orbit path shows where the satellite is in the earth's shadow,  

DLR